Regional Weather Roundup
Issued by NWS

Home | Current Version | Previous Version | Graphics & Text | Print | Product List | Glossary On
Versions: 1 2 3 4 5 6 7 8 9 10 11 12 13 14 15 16 17 18 19 20 21 22 23 24 25 26 27 28 29 30 31 32 33 34 35 36 37 38 39 40 41 42 43 44 45 46 47 48 49 50
000
ASUS45 KCYS 051810
RWRWY

WYOMING REGIONAL WEATHER ROUNDUP
NATIONAL WEATHER SERVICE CHEYENNE WY
1200 PM MDT THU MAY 05 2016

NOTE:  "FAIR" INDICATES FEW OR NO CLOUDS BELOW 12,000 FEET
WITH NO SIGNIFICANT WEATHER AND/OR OBSTRUCTIONS TO VISIBILITY.

WYZ001-051900-
YELLOWSTONE NATIONAL PARK

CITY           SKY/WX    TMP DP  RH WIND       PRES   REMARKS
LK YELLOWSTONE   N/A     53  25  33 E3        30.19F
6HR MIN TEMP:  29; 6HR MAX TEMP:  55;

W YELLOWSTONE  NOT AVBL

$$
WYZ002>013-054>058-071-098>099-051900-
NORTHERN WYOMING

CITY           SKY/WX    TMP DP  RH WIND       PRES   REMARKS
JACKSON        SUNNY     64  32  29 S6        30.11F
CODY           FAIR      73  34  23 SW6       30.01S
GREYBULL       FAIR      73  34  23 S8        29.97S
6HR MIN TEMP:  50; 6HR MAX TEMP:  73;

WORLAND        FAIR      70  37  29 CALM      29.99F
6HR MIN TEMP:  48; 6HR MAX TEMP:  70;

SHERIDAN       FAIR      77  42  28 CALM      29.94F
6HR MIN TEMP:  41; 6HR MAX TEMP:  77;

BUFFALO        FAIR      74  36  25 CALM      30.01S
6HR MIN TEMP:  52; 6HR MAX TEMP:  75;

GILLETTE       FAIR      78  42  27 S10       29.96F
6HR MIN TEMP:  49; 6HR MAX TEMP:  78;

HULETT         FAIR      81  28  15 SW7       29.97F
NEWCASTLE      FAIR      77  32  19 SE10      29.99F

$$
WYZ014>020-022>026-101>103-051900-
CENTRAL WYOMING

CITY           SKY/WX    TMP DP  RH WIND       PRES   REMARKS
BIG PINEY      FAIR      64  32  30 VRB6      30.16F
6HR MIN TEMP:  35; 6HR MAX TEMP:  65;

PINEDALE       FAIR      66  28  24 S8        30.17F
DUBOIS         FAIR      63  25  23 E8        30.14F
LANDER         FAIR      70  38  31 VRB3      30.06F
6HR MIN TEMP:  50; 6HR MAX TEMP:  72;

RIVERTON       FAIR      69  38  32 E3        30.08S
6HR MIN TEMP:  49; 6HR MAX TEMP:  70;

CASPER         FAIR      74  37  26 SW15      30.05F
6HR MIN TEMP:  48; 6HR MAX TEMP:  74;

DOUGLAS        FAIR      75  41  29 CALM      30.04F
6HR MIN TEMP:  40; 6HR MAX TEMP:  75;


$$
WYZ021-027>030-104>119-051900-
SOUTHERN WYOMING

CITY           SKY/WX    TMP DP  RH WIND       PRES   REMARKS
EVANSTON       FAIR      71  24  17 S12G22    30.12F
6HR MIN TEMP:  51; 6HR MAX TEMP:  71;

KEMMERER         N/A     68  28  22 SE10G16   30.16S
FORT BRIDGER   CLEAR     70  32  24 E7        30.17S
ROCK SPRINGS   PTSUNNY   70  26  19 VRB6G21   30.14F
6HR MIN TEMP:  46; 6HR MAX TEMP:  71;

DIXON          FAIR      72  29  20 SW3       30.19F
RAWLINS        FAIR      70  24  17 SW10      30.17F
6HR MIN TEMP:  37; 6HR MAX TEMP:  71;

SARATOGA       FAIR      70  27  19 SW13G21   30.19F
LARAMIE        FAIR      65  26  23 CALM      30.19F
6HR MIN TEMP:  36; 6HR MAX TEMP:  66;

CHEYENNE       FAIR      72  26  18 NW9       30.14F
6HR MIN TEMP:  46; 6HR MAX TEMP:  72;

TORRINGTON     FAIR      76  41  28 VRB6      30.01F
6HR MIN TEMP:  45; 6HR MAX TEMP:  76;

PINE BLUFFS    FAIR      73  43  33 SW8       30.09F

$$



USA.gov is the U.S. government's official web portal to all federal, state and local government web resources and services.